FW5866 Weather Reports


Display with metric or nautical units.
time (UTC)temp
F
wind
direction
speed
MPH
gust
MPH
rain 1hr
in
rain 24hr
in
rain mn
in
humidity
%
barometer
mb
20260905113051 76 0 0.0 0.0 0.00 0.00 0.00 91 1014.7
20260905111619 76 0 0.0 0.0 0.00 0.00 0.00 91 1014.3
20260905110055 76 0 0.0 0.0 0.00 0.00 0.00 91 1014.2
20260905104550 76 0 0.0 0.0 0.00 0.00 0.00 90 1014.2
20260905103102 76 0 0.0 0.0 0.00 0.00 0.00 90 1014.2
20260905101559 76 0 0.0 0.0 0.00 0.00 0.00 90 1014.2
20260905100108 76 0 0.0 0.0 0.00 0.00 0.00 89 1014.2
20260905094558 76 0 0.0 0.0 0.00 0.00 0.00 90 1014.2
20260905093056 76 0 0.0 0.0 0.00 0.00 0.00 90 1014.3
20260905091604 76 0 0.0 0.0 0.00 0.00 0.00 89 1014.3
20260905090057 76 0 0.0 0.0 0.00 0.00 0.00 89 1014.2
20260905084553 77 0 0.0 0.0 0.00 0.00 0.00 89 1014.2
20260905083050 77 0 0.0 0.0 0.00 0.00 0.00 89 1014.2
20260905081604 77 0 0.0 0.0 0.00 0.00 0.00 89 1014.2
20260905074551 77 0 0.0 0.0 0.00 0.00 0.00 89 1014.2
20260905073049 77 0 0.0 0.0 0.00 0.00 0.00 89 1014.2
20260905071559 77 0 0.0 0.0 0.00 0.00 0.00 88 1014.3
20260905070100 77 0 0.0 0.0 0.00 0.00 0.00 88 1014.4
20260905064552 77 0 0.0 0.0 0.00 0.00 0.00 88 1014.4
20260905063059 77 0 0.0 0.0 0.00 0.00 0.00 88 1014.4
20260905061609 77 0 0.0 0.0 0.00 0.00 0.00 88 1014.4
20260905060058 77 0 0.0 0.0 0.00 0.00 0.00 87 1014.4
20260905054552 77 0 0.0 0.0 0.00 0.00 0.00 87 1014.4
20260905053054 77 0 0.0 0.0 0.00 0.00 0.00 87 1014.5
20260905051548 77 0 0.0 0.0 0.00 0.00 0.00 88 1014.5
20260905050059 78 0 0.0 0.0 0.00 0.00 0.00 88 1014.5
20260905044603 78 0 0.0 0.0 0.00 0.00 0.00 86 1014.6
20260905043051 78 0 0.0 0.0 0.00 0.00 0.00 86 1014.6
20260905041558 78 0 0.0 0.0 0.00 0.00 0.00 86 1014.8
20260905040056 78 0 0.0 0.0 0.00 0.00 0.00 85 1014.9
20260905034553 78 0 0.0 0.0 0.00 0.00 0.00 84 1015.0
20260905033048 79 0 0.0 0.0 0.00 0.00 0.00 84 1015.0
20260905031554 79 0 0.0 0.0 0.00 0.00 0.00 84 1015.2
20260905024555 79 0 0.0 0.0 0.00 0.00 0.00 83 1015.3
20260905023049 79 0 0.0 0.0 0.00 0.00 0.00 84 1015.4
20260905021557 80 0 0.0 0.0 0.00 0.00 0.00 83 1015.3
20260905020105 80 0 0.0 0.0 0.00 0.00 0.00 82 1015.1
20260905014553 80 0 0.0 0.0 0.00 0.00 0.00 82 1015.0
20260905013049 81 0 0.0 0.0 0.00 0.00 0.00 81 1014.7
20260905011559 81 0 0.0 0.0 0.00 0.00 0.00 81 1014.4
20260905010100 82 0 0.0 0.0 0.00 0.00 0.00 80 1014.3
20260905004610 82 0 0.0 1.0 0.00 0.00 0.00 81 1014.4
20260905003051 83 0 0.0 2.0 0.00 0.00 0.00 81 1014.7
20260905001548 84 0 0.0 2.0 0.00 0.00 0.00 81 1014.7
20260905000058 84 0 0.0 3.0 0.00 0.00 0.00 80 1014.5
20260904234557 85 0 0.0 4.0 0.00 0.00 0.00 80 1014.5
20260904233053 87 0 0.0 5.0 0.00 0.00 0.00 79 1014.4
20260904231559 88 0 0.0 3.0 0.00 0.00 0.00 77 1014.1
20260904230058 89 0 0.0 2.0 0.00 0.00 0.00 76 1013.9
20260904224558 89 144 0.0 4.0 0.00 0.00 0.00 77 1013.6
20260904223052 88 0 0.0 2.0 0.00 0.00 0.00 77 1013.5
20260904221604 89 0 0.0 2.0 0.00 0.00 0.00 77 1013.6
20260904214557 90 320 0.0 3.0 0.00 0.00 0.00 75 1013.5
20260904213101 90 0 0.0 2.0 0.00 0.00 0.00 79 1013.7
20260904211608 90 0 0.0 2.0 0.00 0.00 0.00 79 1014.0
20260904210056 90 346 0.0 4.0 0.00 0.00 0.00 77 1014.0
20260904204558 90 59 0.0 4.0 0.00 0.11 0.00 79 1014.2
20260904203114 90 0 0.0 4.0 0.00 0.11 0.00 82 1014.2
20260904201600 89 0 0.0 3.0 0.00 0.11 0.00 83 1014.5
20260904200110 88 178 0.0 2.0 0.00 0.11 0.00 84 1014.6
20260904194558 88 0 0.0 3.0 0.00 0.20 0.00 85 1014.8
20260904193101 87 0 0.0 2.0 0.00 0.20 0.00 85 1015.2
20260904191600 87 136 0.0 4.0 0.00 0.20 0.00 84 1015.5
20260904190058 88 0 0.0 4.0 0.00 0.20 0.00 85 1015.7
20260904184554 88 0 0.0 2.0 0.00 0.20 0.00 85 1015.7
20260904183050 88 0 0.0 1.0 0.00 0.20 0.00 86 1015.7
20260904181557 87 32 0.0 3.0 0.00 0.20 0.00 86 1015.9
20260904180106 87 49 0.0 3.0 0.00 0.20 0.00 86 1016.1
20260904174606 87 51 0.0 4.0 0.00 0.20 0.00 86 1016.1
20260904173102 86 345 0.0 3.0 0.00 0.20 0.00 88 1016.3
20260904171603 86 72 1.0 4.0 0.00 0.20 0.00 88 1016.3
20260904170059 86 60 0.0 4.0 0.00 0.20 0.00 89 1016.8
20260904164556 84 69 0.0 3.0 0.00 0.20 0.00 91 1016.9
20260904163051 84 0 0.0 3.0 0.00 0.20 0.00 91 1017.0
20260904161617 83 0 0.0 3.0 0.00 0.20 0.00 92 1017.0
20260904160059 83 37 0.0 3.0 0.00 0.20 0.00 92 1017.1
20260904154555 82 0 1.0 3.0 0.00 0.20 0.00 93 1017.0
20260904153133 81 68 0.0 5.0 0.00 0.20 0.00 94 1017.0
20260904151557 81 0 0.0 3.0 0.00 0.20 0.00 94 1016.6
20260904150053 80 0 0.0 3.0 0.00 0.20 0.00 95 1016.7
20260904144603 80 23 0.0 2.0 0.00 0.20 0.00 95 1016.6
20260904143100 79 0 0.0 1.0 0.00 0.20 0.00 95 1016.5
20260904141557 78 309 0.0 3.0 0.00 0.20 0.00 95 1016.4
20260904140055 77 0 0.0 0.0 0.00 0.20 0.00 95 1016.4
20260904134553 77 0 0.0 0.0 0.00 0.20 0.00 95 1016.5
20260904133100 76 0 0.0 0.0 0.00 0.20 0.00 95 1016.4
20260904131619 75 0 0.0 0.0 0.00 0.20 0.00 95 1016.4
20260904130055 74 0 0.0 0.0 0.00 0.20 0.00 95 1016.2
20260904124555 74 0 0.0 0.0 0.00 0.20 0.00 94 1016.0
20260904123100 74 0 0.0 0.0 0.00 0.20 0.00 94 1016.0
20260904121600 74 0 0.0 0.0 0.00 0.20 0.00 95 1015.7
20260904114557 74 0 0.0 0.0 0.00 0.20 0.00 94 1015.8